Hill City, KS

8:12 AM CST on December 11, 2017 (GMT -0600)
Hill City Municipal

Weather History for KHLC - September, 2012

Change the Weather History Date:

Sunday, September 16, 2012

  Actual Average Record
Temperature  
Mean Temperature 65 °F 67 °F  
Max Temperature 83 °F 82 °F 100 °F (1955)
Min Temperature 46 °F 53 °F 31 °F (1912)
Degree Days  
Heating Degree Days 1    
Growing Degree Days 14 (Base 50)    
Moisture  
Dew Point 50 °F    
Average Humidity 84    
Maximum Humidity 100    
Minimum Humidity 25    
Precipitation  
Precipitation 0.00 in 0.05 in 0.12 in (2013)
Month to date precipitation 1.88 1.06  
Year to date precipitation 8.71 18.94  
Sea Level Pressure  
Sea Level Pressure 30.03 in    
Wind  
Wind Speed 2 mph (South)    
Max Wind Speed 14 mph    
Max Gust Speed 20 mph    
Visibility 5 miles    
Events Fog    
T = Trace of Precipitation, MM = Missing Value Source: NWS Daily Summary

Daily Weather History Graph

Daily Weather History Graph

Search for Another Location

Airport or City:

Trip Planner

Search our weather history database for the weather conditions in past years. The results will help you decide how hot, cold, wet, or windy it might be!

Date:

Astronomy

Sep. 16, 2012 Rise Set
Actual Time 7:21 AM CDT 7:45 PM CDT
Civil Twilight 6:55 AM CDT 8:12 PM CDT
Nautical Twilight 6:23 AM CDT 8:43 PM CDT
Astronomical Twilight 5:51 AM CDT 9:15 PM CDT
Moon 8:02 AM CDT (9/16) 7:52 PM CDT (9/16)
Length of Visible Light 13h 17m
Length of Day
12h 23m
New Moon, 0% of the Moon is Illuminated
Sep 16
New Moon
Sep 22
First Quarter
Sep 29
Full
Oct 8
Last Quarter
Oct 15
New

Hourly Weather History & Observations

Time (CDT) Temp. Dew Point Humidity Pressure Visibility Wind Dir Wind Speed Gust Speed Precip Events Conditions
12:53 AM 57.9 °F 57.0 °F 97% 30.08 in 10.0 mi South 3.5 mph - N/A   Clear
1:53 AM 55.9 °F 55.0 °F 97% 30.07 in 8.0 mi Calm Calm - N/A   Clear
2:13 AM 55.4 °F 55.4 °F 100% 30.11 in 1.8 mi Calm Calm - N/A   Clear
2:29 AM 53.6 °F 53.6 °F 100% 30.10 in 2.5 mi Calm Calm - N/A   Clear
2:36 AM 55.4 °F 53.6 °F 94% 30.10 in 3.0 mi Calm Calm - N/A   Clear
2:50 AM 53.6 °F 53.6 °F 100% 30.09 in 1.8 mi Calm Calm - N/A   Clear
2:53 AM 53.1 °F 53.1 °F 100% 30.06 in 1.0 mi Calm Calm - N/A   Clear
2:57 AM 53.6 °F 53.6 °F 100% 30.09 in 0.5 mi Calm Calm - N/A Fog Fog
3:06 AM 51.8 °F 51.8 °F 100% 30.09 in 0.2 mi Calm Calm - N/A Fog Fog
3:17 AM 51.8 °F 51.8 °F 100% 30.09 in 0.5 mi Calm Calm - N/A Fog Fog
3:32 AM 53.6 °F 51.8 °F 94% 30.08 in 1.8 mi Calm Calm - N/A   Partly Cloudy
3:39 AM 48.2 °F 48.2 °F 100% 30.08 in 7.0 mi Calm Calm - N/A   Partly Cloudy
3:53 AM 52.0 °F 52.0 °F 100% 30.04 in 8.0 mi WSW 3.5 mph - N/A   Clear
4:53 AM 48.9 °F 48.0 °F 97% 30.04 in 9.0 mi Calm Calm - N/A   Clear
5:26 AM 48.2 °F 48.2 °F 100% 30.07 in 1.5 mi Calm Calm - N/A   Clear
5:28 AM 48.2 °F 48.2 °F 100% 30.07 in 0.8 mi Calm Calm - N/A   Mist
5:38 AM 48.2 °F 48.2 °F 100% 30.07 in 0.2 mi Calm Calm - N/A Fog Fog
5:51 AM 48.2 °F 48.2 °F 100% 30.07 in 0.2 mi Calm Calm - N/A Fog Fog
5:53 AM 48.0 °F 48.0 °F 100% 30.03 in 0.2 mi Calm Calm - N/A Fog Fog
6:14 AM 51.8 °F 51.8 °F 100% 30.06 in 0.5 mi Calm Calm - N/A Fog Fog
6:27 AM 48.2 °F 48.2 °F 100% 30.06 in 3.0 mi Calm Calm - N/A   Mostly Cloudy
6:35 AM 48.2 °F 48.2 °F 100% 30.06 in 2.5 mi Calm Calm - N/A   Scattered Clouds
6:46 AM 48.2 °F 48.2 °F 100% 30.06 in 3.0 mi SW 3.5 mph - N/A   Mostly Cloudy
6:48 AM 48.2 °F 48.2 °F 100% 30.06 in 1.5 mi SW 4.6 mph - N/A   Mostly Cloudy
6:50 AM 50.0 °F 50.0 °F 100% 30.06 in 0.8 mi SW 4.6 mph - N/A   Mist
6:53 AM 50.0 °F 50.0 °F 100% 30.03 in 0.5 mi SW 3.5 mph - N/A Fog Fog
6:57 AM 48.2 °F 48.2 °F 100% 30.06 in 0.2 mi Calm Calm - N/A Fog Fog
7:41 AM 46.4 °F 46.4 °F 100% 30.06 in 0.5 mi Calm Calm - N/A Fog Fog
7:53 AM 46.9 °F 46.9 °F 100% 30.05 in 0.2 mi Calm Calm - N/A Fog Fog
8:40 AM 50.0 °F 50.0 °F 100% 30.07 in 0.5 mi Calm Calm - N/A Fog Fog
8:53 AM 50.0 °F 50.0 °F 100% 30.05 in 0.8 mi Calm Calm - N/A   Mist
9:05 AM 51.8 °F 51.8 °F 100% 30.07 in 0.2 mi East 3.5 mph - N/A Fog Fog
9:53 AM 55.0 °F 55.0 °F 100% 30.06 in 0.2 mi SSE 3.5 mph - N/A Fog Fog
9:59 AM 55.4 °F 55.4 °F 100% 30.07 in 1.2 mi SE 3.5 mph - N/A   Overcast
10:01 AM 55.4 °F 55.4 °F 100% 30.07 in 4.0 mi SSE 3.5 mph - N/A   Mostly Cloudy
10:17 AM 57.2 °F 55.4 °F 94% 30.07 in 10.0 mi South 6.9 mph - N/A   Scattered Clouds
10:53 AM 62.1 °F 55.9 °F 80% 30.04 in 10.0 mi SSW 5.8 mph - N/A   Clear
11:53 AM 70.0 °F 55.9 °F 61% 30.01 in 10.0 mi South 6.9 mph - N/A   Clear
12:53 PM 77.0 °F 51.1 °F 40% 29.98 in 10.0 mi SSW 9.2 mph - N/A   Clear
1:53 PM 80.1 °F 45.0 °F 29% 29.96 in 10.0 mi South 13.8 mph - N/A   Clear
2:53 PM 82.0 °F 44.1 °F 26% 29.92 in 10.0 mi South 11.5 mph - N/A   Clear
3:53 PM 82.0 °F 44.1 °F 26% 29.91 in 10.0 mi South 13.8 mph 19.6 mph N/A   Clear
4:53 PM 81.0 °F 42.1 °F 25% 29.89 in 10.0 mi South 11.5 mph - N/A   Clear
5:53 PM 80.1 °F 45.0 °F 29% 29.88 in 10.0 mi SSE 12.7 mph - N/A   Clear
6:53 PM 79.0 °F 48.0 °F 34% 29.88 in 10.0 mi SSE 9.2 mph - N/A   Clear
7:53 PM 72.0 °F 48.9 °F 44% 29.88 in 10.0 mi SE 6.9 mph - N/A   Clear
8:53 PM 64.0 °F 50.0 °F 60% 29.89 in 10.0 mi ESE 4.6 mph - N/A   Clear
9:53 PM 66.0 °F 50.0 °F 56% 29.88 in 10.0 mi SSE 4.6 mph - N/A   Clear
10:53 PM 66.0 °F 48.9 °F 54% 29.88 in 10.0 mi Calm Calm - N/A   Clear
11:53 PM 64.0 °F 52.0 °F 65% 29.88 in 10.0 mi South 5.8 mph - N/A   Clear